FW4597 Lexington MA US current weather conditions

sailwx.info

Wind from 289

Air temperature 23.3° C
Dewpoint 22.0° C

Last reported at 2020-Jul-10 23:08 UTC.
Time now 2020-Jul-10 23:52 UTC

Location: N 42°26' W 071°14'.
View on Google Maps.

See reports from other nearby stations

  
Tides and Currents Weather Stations Pressure Air Temp Water Temp Dewpoint Dewpoint Depression Visibility Wind Speed Wind Dir Waves Ship Positions
date/time (UTC)wind fromknots sea level pressurealtimeterstation pressurevisibilityair tempwater tempwave heightnotes
2020-Jul-10 23:08 289 23.3
2020-Jul-10 23:03 288 23.3
2020-Jul-10 22:58 288 23.3
2020-Jul-10 22:52 290 0 gusting 3 23.3
2020-Jul-10 22:48 193 23.3
2020-Jul-10 22:42 284 23.3
2020-Jul-10 22:37 286 23.3
2020-Jul-10 22:32 286 23.3
2020-Jul-10 22:27 334 0 gusting 1 23.3
2020-Jul-10 22:22 334 0 gusting 2 23.3
2020-Jul-10 22:17 338 0 gusting 2 23.9
2020-Jul-10 22:12 337 0 gusting 3 23.9
2020-Jul-10 22:07 002 0 gusting 3 23.9
2020-Jul-10 22:02 247 0 gusting 2 23.9
2020-Jul-10 21:57 345 0 gusting 2 23.9
2020-Jul-10 21:52 324 0 gusting 3 23.9
2020-Jul-10 21:47 323 0 gusting 3 24.4
2020-Jul-10 21:42 335 0 gusting 2 24.4
2020-Jul-10 21:37 005 0 gusting 6 24.4
2020-Jul-10 21:32 195 0 gusting 6 24.4
2020-Jul-10 21:27 085 0 gusting 5 24.4
2020-Jul-10 21:22 338 0 gusting 3 25.0
2020-Jul-10 21:17 345 0 gusting 3 25.0
2020-Jul-10 21:12 340 0 gusting 2 25.0
2020-Jul-10 21:07 022 0 gusting 3 25.0
2020-Jul-10 21:02 270 0 gusting 4 25.0
2020-Jul-10 20:57 334 0 gusting 4 25.0
2020-Jul-10 20:52 067 0 gusting 2 25.0
2020-Jul-10 20:47 290 0 gusting 2 25.0
2020-Jul-10 20:42 341 0 gusting 2 25.6
2020-Jul-10 20:37 313 0 gusting 3 25.6
2020-Jul-10 20:32 201 0 gusting 3 25.6
2020-Jul-10 20:27 099 0 gusting 6 25.6
2020-Jul-10 20:22 328 1 gusting 6 25.6
2020-Jul-10 20:17 292 0 gusting 3 26.1
2020-Jul-10 20:12 092 0 gusting 4 26.1
2020-Jul-10 20:07 222 0 gusting 4 26.1
2020-Jul-10 20:02 128 0 gusting 2 26.7
2020-Jul-10 19:57 355 0 gusting 2 26.7
2020-Jul-10 19:52 039 0 gusting 3 26.7
2020-Jul-10 19:47 359 0 gusting 3 26.7
2020-Jul-10 19:42 030 0 gusting 6 26.7
2020-Jul-10 19:37 333 0 gusting 6 26.7
2020-Jul-10 19:32 338 0 gusting 3 27.2
2020-Jul-10 19:27 007 0 gusting 3 27.2
2020-Jul-10 19:22 321 0 gusting 3 27.2
2020-Jul-10 19:17 245 0 gusting 1 27.2
2020-Jul-10 19:12 249 0 gusting 2 27.8
2020-Jul-10 19:07 311 0 gusting 2 27.8
2020-Jul-10 19:02 019 0 gusting 3 27.8
2020-Jul-10 18:57 154 0 gusting 3 27.8
2020-Jul-10 18:52 091 0 gusting 3 28.3
2020-Jul-10 18:47 345 0 gusting 3 28.3
2020-Jul-10 18:42 055 28.3
2020-Jul-10 18:37 192 0 gusting 2 28.3
2020-Jul-10 18:32 007 0 gusting 2 28.3
2020-Jul-10 18:27 287 0 gusting 2 28.3
2020-Jul-10 18:22 306 0 gusting 3 28.3
2020-Jul-10 18:17 175 0 gusting 3 28.3
2020-Jul-10 18:12 028 0 gusting 2 28.3
2020-Jul-10 18:07 044 0 gusting 4 28.9
2020-Jul-10 18:02 111 0 gusting 4 28.9
2020-Jul-10 17:57 307 0 gusting 3 28.9
2020-Jul-10 17:52 305 0 gusting 6 28.9
2020-Jul-10 17:47 288 0 gusting 6 28.9
2020-Jul-10 17:42 059 0 gusting 3 28.9
2020-Jul-10 17:37 125 0 gusting 3 28.9
2020-Jul-10 17:31 246 0 gusting 3 28.9
2020-Jul-10 17:26 001 0 gusting 3 28.9
2020-Jul-10 17:22 055 0 gusting 2 28.9
2020-Jul-10 17:16 158 0 gusting 2 28.9
2020-Jul-10 17:11 309 0 gusting 2 28.9
2020-Jul-10 17:07 251 28.9
2020-Jul-10 17:01 226 0 gusting 4 28.9
2020-Jul-10 16:56 213 0 gusting 4 28.9
2020-Jul-10 16:51 355 0 gusting 5 28.9
2020-Jul-10 16:46 199 0 gusting 5 28.9
2020-Jul-10 16:41 309 0 gusting 3 28.9
2020-Jul-10 16:36 138 0 gusting 1 28.9
2020-Jul-10 16:31 201 0 gusting 8 28.3
2020-Jul-10 16:26 276 0 gusting 8 28.3
2020-Jul-10 16:21 205 0 gusting 4 28.3
2020-Jul-10 16:16 345 0 gusting 2 28.3
2020-Jul-10 16:11 319 0 gusting 2 28.3
2020-Jul-10 16:06 219 0 gusting 6 28.3
2020-Jul-10 16:01 180 0 gusting 6 28.3
2020-Jul-10 15:56 280 0 gusting 6 27.8
2020-Jul-10 15:51 211 0 gusting 6 27.8
2020-Jul-10 15:46 274 27.8
2020-Jul-10 15:41 287 27.2
2020-Jul-10 15:36 147 0 gusting 2 27.2
2020-Jul-10 15:31 276 0 gusting 4 27.2
2020-Jul-10 15:26 178 0 gusting 4 27.2
2020-Jul-10 15:21 213 0 gusting 3 26.7
2020-Jul-10 15:16 228 0 gusting 3 26.7
2020-Jul-10 15:11 201 26.7
2020-Jul-10 15:06 221 26.7
2020-Jul-10 15:01 220 0 gusting 3 26.1
2020-Jul-10 14:56 231 0 gusting 4 26.1
2020-Jul-10 14:51 275 0 gusting 4 26.1
2020-Jul-10 14:46 230 0 gusting 3 26.1
2020-Jul-10 14:41 190 0 gusting 3 25.6
2020-Jul-10 14:36 168 0 gusting 3 25.6
2020-Jul-10 14:31 200 0 gusting 2 25.6
2020-Jul-10 14:26 197 0 gusting 4 25.6
2020-Jul-10 14:21 253 0 gusting 4 25.6
2020-Jul-10 14:16 284 0 gusting 2 25.6
2020-Jul-10 14:11 288 0 gusting 2 25.0
2020-Jul-10 14:06 192 25.0
2020-Jul-10 14:01 191 0 gusting 2 25.0
2020-Jul-10 13:56 167 0 gusting 2 25.0
2020-Jul-10 13:51 187 0 gusting 3 24.4
2020-Jul-10 13:46 227 0 gusting 3 24.4
2020-Jul-10 13:41 165 0 gusting 3 24.4
2020-Jul-10 13:36 178 0 gusting 1 24.4
2020-Jul-10 13:31 180 0 gusting 2 23.9
2020-Jul-10 13:26 225 0 gusting 3 23.9
2020-Jul-10 13:21 199 0 gusting 3 23.9
2020-Jul-10 13:16 272 0 gusting 3 23.9
2020-Jul-10 13:11 187 0 gusting 3 23.9
2020-Jul-10 13:06 284 0 gusting 3 23.9
2020-Jul-10 13:01 157 0 gusting 3 23.3
2020-Jul-10 12:56 154 0 gusting 3 23.3
2020-Jul-10 12:50 196 0 gusting 4 23.3
2020-Jul-10 12:45 186 0 gusting 4 23.3
2020-Jul-10 12:40 180 0 gusting 3 23.3
2020-Jul-10 12:35 236 0 gusting 3 23.3
2020-Jul-10 12:30 225 0 gusting 2 23.3
2020-Jul-10 12:25 215 22.8
2020-Jul-10 12:20 215 0 gusting 2 22.8
2020-Jul-10 12:15 215 0 gusting 3 22.8
2020-Jul-10 12:10 215 22.8
2020-Jul-10 12:05 225 22.8
2020-Jul-10 12:00 225 22.8
2020-Jul-10 11:55 225 22.8
2020-Jul-10 11:50 225 22.8
2020-Jul-10 11:45 225 22.8
2020-Jul-10 11:40 224 22.2
2020-Jul-10 11:35 224 0 gusting 1 22.2
2020-Jul-10 11:30 224 0 gusting 1 22.2
2020-Jul-10 11:25 225 0 gusting 3 22.2
2020-Jul-10 11:20 232 0 gusting 3 22.2
2020-Jul-10 11:15 162 0 gusting 3 22.2
2020-Jul-10 11:10 194 22.2
2020-Jul-10 11:05 194 22.2
2020-Jul-10 11:00 236 22.2
2020-Jul-10 10:55 213 22.2
2020-Jul-10 10:50 212 22.2
2020-Jul-10 10:45 208 0 gusting 2 22.2
2020-Jul-10 10:40 238 0 gusting 2 22.2
2020-Jul-10 10:35 242 0 gusting 2 22.2
2020-Jul-10 10:30 184 0 gusting 2 22.2
2020-Jul-10 10:25 244 22.2
2020-Jul-10 10:20 260 22.2
2020-Jul-10 10:15 263 0 gusting 3 22.2
2020-Jul-10 10:10 265 0 gusting 3 22.2
2020-Jul-10 10:05 148 22.2
2020-Jul-10 10:00 148 0 gusting 4 22.2
2020-Jul-10 09:55 153 0 gusting 4 22.2
2020-Jul-10 09:50 263 0 gusting 3 22.2
2020-Jul-10 09:45 220 0 gusting 3 22.2
2020-Jul-10 09:40 199 0 gusting 2 22.2
2020-Jul-10 09:35 278 0 gusting 2 22.2
2020-Jul-10 09:30 271 0 gusting 3 22.2
2020-Jul-10 09:25 211 0 gusting 3 22.2
2020-Jul-10 09:20 257 0 gusting 3 22.2
2020-Jul-10 09:15 233 0 gusting 5 22.2
2020-Jul-10 09:10 264 0 gusting 5 22.2
2020-Jul-10 09:05 307 0 gusting 4 22.2
2020-Jul-10 09:00 224 22.2
2020-Jul-10 08:55 209 22.2
2020-Jul-10 08:50 185 22.2
2020-Jul-10 08:45 184 22.2
2020-Jul-10 08:40 161 22.2
2020-Jul-10 08:35 207 22.2
2020-Jul-10 08:30 210 0 gusting 2 22.2
2020-Jul-10 08:25 216 0 gusting 2 22.2
2020-Jul-10 08:20 239 22.2
2020-Jul-10 08:15 244 22.2
2020-Jul-10 08:10 265 22.2
2020-Jul-10 08:05 206 0 gusting 3 22.2
2020-Jul-10 08:00 205 0 gusting 3 22.2
2020-Jul-10 07:55 202 22.2
2020-Jul-10 07:50 154 22.2
2020-Jul-10 07:45 154 22.8
2020-Jul-10 07:40 154 0 gusting 4 22.8
2020-Jul-10 07:35 141 0 gusting 4 22.8
2020-Jul-10 07:30 224 22.8
2020-Jul-10 07:25 253 0 gusting 3 22.8
2020-Jul-10 07:20 254 0 gusting 3 22.8
2020-Jul-10 07:15 196 0 gusting 2 22.8
2020-Jul-10 07:09 234 22.8
2020-Jul-10 07:05 233 22.8
2020-Jul-10 06:59 217 22.8
2020-Jul-10 06:54 219 22.8
2020-Jul-10 06:50 219 22.8
2020-Jul-10 06:44 219 23.3
2020-Jul-10 06:39 219 23.3
2020-Jul-10 06:34 219 23.3
2020-Jul-10 06:29 205 23.3
2020-Jul-10 06:24 203 23.3
2020-Jul-10 06:19 203 23.3
2020-Jul-10 06:14 203 23.3
2020-Jul-10 06:09 203 23.3
2020-Jul-10 06:04 202 23.3
2020-Jul-10 05:59 274 23.3
2020-Jul-10 05:54 274 23.3
2020-Jul-10 05:49 282 0 gusting 3 23.3
2020-Jul-10 05:44 211 0 gusting 3 23.9
2020-Jul-10 05:39 201 0 gusting 3 23.9
2020-Jul-10 05:34 154 0 gusting 1 23.9
2020-Jul-10 05:29 153 0 gusting 1 23.9
2020-Jul-10 05:24 141 0 gusting 1 23.9
2020-Jul-10 05:19 231 0 gusting 1 23.9
2020-Jul-10 05:14 230 0 gusting 2 23.9
2020-Jul-10 05:09 259 0 gusting 2 23.9
2020-Jul-10 05:04 213 0 gusting 2 23.9
2020-Jul-10 04:59 207 0 gusting 2 24.4
2020-Jul-10 04:54 248 0 gusting 3 24.4
2020-Jul-10 04:49 219 0 gusting 3 24.4
2020-Jul-10 04:44 237 0 gusting 3 24.4
2020-Jul-10 04:39 178 0 gusting 3 24.4
2020-Jul-10 04:34 149 24.4
2020-Jul-10 04:29 256 0 gusting 4 24.4
2020-Jul-10 04:24 256 0 gusting 4 24.4
2020-Jul-10 04:19 196 0 gusting 4 24.4
2020-Jul-10 04:14 198 0 gusting 4 24.4
2020-Jul-10 04:09 255 0 gusting 2 24.4
2020-Jul-10 04:04 224 0 gusting 2 24.4
2020-Jul-10 03:58 223 0 gusting 4 25.0
2020-Jul-10 03:53 186 0 gusting 4 25.0
2020-Jul-10 03:49 193 0 gusting 2 25.0
2020-Jul-10 03:43 253 0 gusting 2 25.0
2020-Jul-10 03:38 223 0 gusting 6 25.0
2020-Jul-10 03:33 223 0 gusting 6 25.0
2020-Jul-10 03:28 197 0 gusting 4 25.0
2020-Jul-10 03:23 154 0 gusting 4 25.0
2020-Jul-10 03:18 205 0 gusting 2 25.0
2020-Jul-10 03:13 206 0 gusting 3 25.6
2020-Jul-10 03:08 163 0 gusting 3 25.6
2020-Jul-10 03:03 192 0 gusting 2 25.6
2020-Jul-10 02:58 197 0 gusting 3 25.6
2020-Jul-10 02:53 230 0 gusting 3 25.6
2020-Jul-10 02:48 284 0 gusting 4 25.6
2020-Jul-10 02:43 151 0 gusting 4 25.6
2020-Jul-10 02:38 163 0 gusting 5 25.6
2020-Jul-10 02:33 244 1 gusting 5 25.6
2020-Jul-10 02:28 228 0 gusting 4 26.1
2020-Jul-10 02:23 222 0 gusting 3 26.1
2020-Jul-10 02:18 176 0 gusting 6 26.1
2020-Jul-10 02:13 235 1 gusting 6 26.1
2020-Jul-10 02:08 257 0 gusting 4 26.1
2020-Jul-10 02:03 286 1 gusting 3 26.1
2020-Jul-10 01:58 236 1 gusting 4 26.1
2020-Jul-10 01:53 316 0 gusting 4 26.7
2020-Jul-10 01:48 214 1 gusting 5 26.7
2020-Jul-10 01:43 210 1 gusting 5 26.7
2020-Jul-10 01:38 257 1 gusting 5 26.7
2020-Jul-10 01:33 155 1 gusting 6 26.7
2020-Jul-10 01:28 145 1 gusting 6 26.7
2020-Jul-10 01:23 190 0 gusting 3 26.7
2020-Jul-10 01:18 223 0 gusting 5 27.2
2020-Jul-10 01:13 232 1 gusting 5 27.2
2020-Jul-10 01:08 196 1 gusting 4 27.2
2020-Jul-10 01:03 262 1 gusting 3 27.2
2020-Jul-10 00:58 253 1 gusting 4 27.2
2020-Jul-10 00:53 275 1 gusting 5 27.8
2020-Jul-10 00:48 258 1 gusting 5 27.8
2020-Jul-10 00:43 232 0 gusting 5 27.8
2020-Jul-10 00:38 269 1 gusting 6 27.8
2020-Jul-10 00:33 242 1 gusting 6 27.8
2020-Jul-10 00:28 160 1 gusting 7 28.3
2020-Jul-10 00:23 238 1 gusting 7 28.3
2020-Jul-10 00:18 203 0 gusting 5 28.3
2020-Jul-10 00:13 187 1 gusting 4 28.3
2020-Jul-10 00:08 152 1 gusting 6 28.3
2020-Jul-10 00:03 247 1 gusting 9 28.3
2020-Jul-09 23:58 253 1 gusting 9 28.9
2020-Jul-09 23:53 161 0 gusting 4 28.9
2020-Jul-09 23:48 164 1 gusting 4 28.9
2020-Jul-09 23:42 138 1 gusting 6 28.9
2020-Jul-09 23:37 129 1 gusting 6 29.4
2020-Jul-09 23:32 169 1 gusting 5 29.4
2020-Jul-09 23:27 158 1 gusting 6 29.4
2020-Jul-09 23:22 164 1 gusting 7 29.4
2020-Jul-09 23:17 180 1 gusting 7 29.4
2020-Jul-09 23:12 264 1 gusting 5 29.4
2020-Jul-09 23:07 224 0 gusting 3 30.0
2020-Jul-09 23:02 246 1 gusting 6 30.0
2020-Jul-09 22:57 068 1 gusting 6 30.0
2020-Jul-09 22:52 138 1 gusting 5 30.0
2020-Jul-09 22:47 152 1 gusting 6 30.0
2020-Jul-09 22:42 277 1 gusting 6 30.0
2020-Jul-09 22:37 178 1 gusting 5 30.0
2020-Jul-09 22:32 203 0 gusting 4 30.0
2020-Jul-09 22:27 216 0 gusting 3 30.0
2020-Jul-09 22:22 199 0 gusting 3 30.0
2020-Jul-09 22:17 161 0 gusting 3 30.0
2020-Jul-09 22:12 257 0 gusting 2 30.0
2020-Jul-09 22:07 261 0 gusting 3 30.0
2020-Jul-09 22:02 222 1 gusting 3 30.0
2020-Jul-09 21:57 273 0 gusting 6 30.6
2020-Jul-09 21:52 107 0 gusting 6 30.6
2020-Jul-09 21:47 013 0 gusting 1 30.6
2020-Jul-09 21:42 292 30.6
2020-Jul-09 21:37 212 0 gusting 3 30.6
2020-Jul-09 21:32 212 0 gusting 3 30.6
2020-Jul-09 21:27 182 0 gusting 2 30.6
2020-Jul-09 21:22 138 0 gusting 2 30.6
2020-Jul-09 21:17 149 30.6
2020-Jul-09 21:12 149 0 gusting 3 30.6
2020-Jul-09 21:07 222 0 gusting 2 30.6
2020-Jul-09 21:02 338 0 gusting 2 30.6
2020-Jul-09 20:57 345 0 gusting 2 30.6
2020-Jul-09 20:52 199 0 gusting 1 30.6
2020-Jul-09 20:47 209 30.6
2020-Jul-09 20:42 201 30.6
2020-Jul-09 20:37 034 30.6
2020-Jul-09 20:32 034 31.1
2020-Jul-09 20:27 175 31.1
2020-Jul-09 20:22 314 31.1
2020-Jul-09 20:17 140 0 gusting 4 31.1
2020-Jul-09 20:12 271 1 gusting 5 31.1
2020-Jul-09 20:07 266 0 gusting 5 31.7
2020-Jul-09 20:02 119 0 gusting 2 31.7
2020-Jul-09 19:56 120 0 gusting 3 31.7
2020-Jul-09 19:51 168 0 gusting 3 31.7
2020-Jul-09 19:46 032 0 gusting 2 31.7
2020-Jul-09 19:41 338 0 gusting 2 31.7
2020-Jul-09 19:37 213 0 gusting 2 31.7
2020-Jul-09 19:32 212 0 gusting 2 31.7
2020-Jul-09 19:26 188 31.7
2020-Jul-09 19:21 190 0 gusting 5 32.2
2020-Jul-09 19:16 182 0 gusting 5 32.2
2020-Jul-09 19:11 266 0 gusting 2 32.2
2020-Jul-09 19:06 006 0 gusting 2 32.8
2020-Jul-09 19:01 234 0 gusting 3 32.8
2020-Jul-09 18:56 237 0 gusting 3 32.8
2020-Jul-09 18:51 211 0 gusting 2 32.8
2020-Jul-09 18:46 234 0 gusting 2 33.3
2020-Jul-09 18:41 136 0 gusting 3 33.3
2020-Jul-09 18:36 167 1 gusting 3 33.3
2020-Jul-09 18:31 257 0 gusting 3 33.3
2020-Jul-09 18:26 266 0 gusting 3 33.3
2020-Jul-09 18:21 211 0 gusting 5 33.3
2020-Jul-09 18:16 257 0 gusting 5 33.3
2020-Jul-09 18:11 215 1 gusting 3 33.3
2020-Jul-09 18:06 212 1 gusting 4 33.3
2020-Jul-09 18:01 192 1 gusting 4 33.3
2020-Jul-09 17:56 224 0 gusting 3 33.3
2020-Jul-09 17:51 217 0 gusting 5 33.3
2020-Jul-09 17:46 261 0 gusting 5 32.8
2020-Jul-09 17:41 246 0 gusting 3 32.8
2020-Jul-09 17:36 269 0 gusting 3 32.8
2020-Jul-09 17:31 210 0 gusting 3 32.8
2020-Jul-09 17:26 205 0 gusting 2 32.8
2020-Jul-09 17:21 251 0 gusting 3 32.2
2020-Jul-09 17:16 182 0 gusting 3 32.2
2020-Jul-09 17:11 296 0 gusting 4 31.7
2020-Jul-09 17:06 204 0 gusting 4 31.7
2020-Jul-09 17:01 176 1 gusting 5 31.7
2020-Jul-09 16:56 178 0 gusting 5 31.1
2020-Jul-09 16:51 188 31.7
2020-Jul-09 16:46 188 0 gusting 3 31.7
2020-Jul-09 16:41 188 0 gusting 3 31.1
2020-Jul-09 16:36 225 1 gusting 4 30.6
2020-Jul-09 16:31 149 1 gusting 4 30.6
2020-Jul-09 16:26 230 0 gusting 4 30.0
2020-Jul-09 16:21 181 29.4
2020-Jul-09 16:16 170 0 gusting 3 29.4
2020-Jul-09 16:11 159 0 gusting 3 29.4
2020-Jul-09 16:06 157 0 gusting 3 28.9
2020-Jul-09 16:01 231 0 gusting 3 28.9
2020-Jul-09 15:55 295 0 gusting 3 28.3
2020-Jul-09 15:50 199 0 gusting 2 28.3
2020-Jul-09 15:45 199 0 gusting 2 28.3
2020-Jul-09 15:40 187 0 gusting 2 28.3
2020-Jul-09 15:35 186 0 gusting 2 28.3
2020-Jul-09 15:30 286 0 gusting 3 27.8
2020-Jul-09 15:25 256 27.8
2020-Jul-09 15:20 210 27.8
2020-Jul-09 15:15 199 0 gusting 4 27.8
2020-Jul-09 15:10 199 0 gusting 5 27.2
2020-Jul-09 15:05 225 0 gusting 5 27.2
2020-Jul-09 15:00 234 0 gusting 2 27.2
2020-Jul-09 14:55 201 0 gusting 2 26.7
2020-Jul-09 14:50 189 0 gusting 2 26.7
2020-Jul-09 14:45 182 0 gusting 2 26.7
2020-Jul-09 14:40 177 0 gusting 2 26.7
2020-Jul-09 14:35 240 0 gusting 3 26.7
2020-Jul-09 14:30 230 0 gusting 3 26.1
2020-Jul-09 14:25 203 26.1
2020-Jul-09 14:20 203 0 gusting 2 26.1
2020-Jul-09 14:15 204 0 gusting 2 25.6
2020-Jul-09 14:10 204 0 gusting 2 25.6
2020-Jul-09 14:05 198 25.6
2020-Jul-09 14:00 143 25.6
2020-Jul-09 13:55 140 25.6
2020-Jul-09 13:50 140 25.6
2020-Jul-09 13:45 140 25.6
2020-Jul-09 13:40 139 25.0
2020-Jul-09 13:35 139 25.0
2020-Jul-09 13:30 136 0 gusting 2 25.0
2020-Jul-09 13:25 031 0 gusting 3 25.0
2020-Jul-09 13:20 169 0 gusting 3 24.4
2020-Jul-09 13:15 201 0 gusting 2 24.4
2020-Jul-09 13:10 200 0 gusting 2 24.4
2020-Jul-09 13:05 199 0 gusting 3 24.4
2020-Jul-09 13:00 198 0 gusting 4 24.4
2020-Jul-09 12:55 154 0 gusting 4 23.9
2020-Jul-09 12:50 178 23.9
2020-Jul-09 12:45 188 0 gusting 3 23.9
2020-Jul-09 12:40 228 0 gusting 3 23.9
2020-Jul-09 12:35 201 0 gusting 3 23.3
2020-Jul-09 12:30 192 1 gusting 3 23.3
2020-Jul-09 12:25 234 1 gusting 4 23.3
2020-Jul-09 12:20 176 0 gusting 4 23.3
2020-Jul-09 12:15 238 23.3
2020-Jul-09 12:10 238 22.8
2020-Jul-09 12:05 237 22.8
2020-Jul-09 12:00 237 0 gusting 3 22.8
2020-Jul-09 11:55 249 0 gusting 3 22.8
2020-Jul-09 11:50 211 22.8
2020-Jul-09 11:45 271 0 gusting 3 22.8
2020-Jul-09 11:40 271 0 gusting 3 22.8
2020-Jul-09 11:35 252 22.8
2020-Jul-09 11:29 252 22.8
2020-Jul-09 11:24 249 22.2
2020-Jul-09 11:19 249 22.2
2020-Jul-09 11:14 238 22.2
2020-Jul-09 11:09 239 22.2
2020-Jul-09 11:04 239 0 gusting 3 22.2
2020-Jul-09 10:59 231 22.2
2020-Jul-09 10:54 230 22.2
2020-Jul-09 10:49 230 22.2
2020-Jul-09 10:44 238 0 gusting 2 22.2
2020-Jul-09 10:39 238 0 gusting 2 22.2
2020-Jul-09 10:34 273 22.2
2020-Jul-09 10:29 247 22.2
2020-Jul-09 10:24 248 0 gusting 3 22.2
2020-Jul-09 10:19 249 0 gusting 3 21.7
2020-Jul-09 10:14 271 0 gusting 3 21.7
2020-Jul-09 10:09 251 0 gusting 3 21.7
2020-Jul-09 10:04 263 0 gusting 4 21.7
2020-Jul-09 09:59 263 0 gusting 4 21.7
2020-Jul-09 09:54 235 0 gusting 2 21.7
2020-Jul-09 09:49 227 0 gusting 2 21.7
2020-Jul-09 09:44 267 0 gusting 2 21.7
2020-Jul-09 09:39 267 0 gusting 2 21.7
2020-Jul-09 09:34 259 0 gusting 3 21.7
2020-Jul-09 09:29 207 1 gusting 6 22.2
2020-Jul-09 09:24 264 1 gusting 6 22.2
2020-Jul-09 09:19 176 1 gusting 6 22.2
2020-Jul-09 09:14 253 0 gusting 3 22.2
2020-Jul-09 09:09 274 0 gusting 3 22.2
2020-Jul-09 09:04 236 22.2
2020-Jul-09 08:59 221 0 gusting 3 22.2
2020-Jul-09 08:54 209 0 gusting 3 22.2
2020-Jul-09 08:49 227 0 gusting 3 22.2
2020-Jul-09 08:44 168 0 gusting 3 22.2
2020-Jul-09 08:39 238 0 gusting 1 22.2
2020-Jul-09 08:34 238 0 gusting 3 22.2
2020-Jul-09 08:29 246 0 gusting 3 22.2
2020-Jul-09 08:24 193 0 gusting 3 22.2
2020-Jul-09 08:19 168 0 gusting 3 22.2
2020-Jul-09 08:14 224 0 gusting 3 22.2
2020-Jul-09 08:09 203 0 gusting 2 22.2
2020-Jul-09 08:04 199 0 gusting 3 22.2
2020-Jul-09 07:59 198 0 gusting 4 22.2
2020-Jul-09 07:54 250 0 gusting 4 22.2
2020-Jul-09 07:49 224 0 gusting 2 22.2
2020-Jul-09 07:44 232 0 gusting 2 22.2
2020-Jul-09 07:39 225 0 gusting 2 22.2
2020-Jul-09 07:34 242 0 gusting 2 22.2
2020-Jul-09 07:29 249 0 gusting 5 22.2
2020-Jul-09 07:24 249 0 gusting 5 22.2
2020-Jul-09 07:19 244 0 gusting 2 22.2
2020-Jul-09 07:14 190 0 gusting 3 22.2
2020-Jul-09 07:09 188 22.2
2020-Jul-09 07:04 271 22.2
2020-Jul-09 06:59 271 0 gusting 3 22.2
2020-Jul-09 06:53 259 0 gusting 3 22.2
2020-Jul-09 06:48 206 0 gusting 3 22.2
2020-Jul-09 06:43 220 0 gusting 3 22.2
2020-Jul-09 06:38 153 0 gusting 2 22.2
2020-Jul-09 06:33 267 0 gusting 2 22.2
2020-Jul-09 06:28 274 0 gusting 3 22.2
2020-Jul-09 06:23 166 0 gusting 3 22.2
2020-Jul-09 06:18 210 22.2
2020-Jul-09 06:13 192 22.2
2020-Jul-09 06:08 188 22.2
2020-Jul-09 06:03 187 22.2
2020-Jul-09 05:58 186 22.2
2020-Jul-09 05:53 259 22.2
2020-Jul-09 05:48 178 22.2
2020-Jul-09 05:43 174 22.2
2020-Jul-09 05:38 247 22.2
2020-Jul-09 05:33 247 22.2
2020-Jul-09 05:28 247 22.2
2020-Jul-09 05:23 247 22.2
2020-Jul-09 05:18 247 22.2
2020-Jul-09 05:13 247 22.8
2020-Jul-09 05:08 247 22.8
2020-Jul-09 05:03 247 22.8
2020-Jul-09 04:58 247 22.8
2020-Jul-09 04:53 247 22.8
2020-Jul-09 04:48 247 22.8
2020-Jul-09 04:43 247 22.8
2020-Jul-09 04:38 247 22.8
2020-Jul-09 04:33 247 22.8
2020-Jul-09 04:28 247 23.3
2020-Jul-09 04:23 247 23.3
2020-Jul-09 04:18 247 23.3
2020-Jul-09 04:13 247 23.3
2020-Jul-09 04:08 247 23.3
2020-Jul-09 04:02 247 23.3
2020-Jul-09 03:57 247 23.3
2020-Jul-09 03:52 247 23.3
2020-Jul-09 03:47 247 23.3
2020-Jul-09 03:42 247 23.9
2020-Jul-09 03:37 247 23.9
2020-Jul-09 03:32 247 23.9
2020-Jul-09 03:27 247 0 gusting 2 23.9
2020-Jul-09 03:22 247 0 gusting 4 23.9
2020-Jul-09 03:17 257 0 gusting 6 23.9
2020-Jul-09 03:12 213 0 gusting 6 23.9
2020-Jul-09 03:07 159 1 gusting 5 23.9
2020-Jul-09 03:02 239 0 gusting 2 23.9
2020-Jul-09 02:57 238 0 gusting 4 23.9
2020-Jul-09 02:53 239 1 gusting 6 24.4
2020-Jul-09 02:47 237 1 gusting 6 24.4
2020-Jul-09 02:42 292 1 gusting 3 24.4
2020-Jul-09 02:37 252 1 gusting 4 24.4
2020-Jul-09 02:32 195 0 gusting 4 24.4
2020-Jul-09 02:27 157 0 gusting 4 24.4
2020-Jul-09 02:22 155 0 gusting 5 24.4
2020-Jul-09 02:17 240 0 gusting 5 24.4
2020-Jul-09 02:12 159 1 gusting 4 24.4
2020-Jul-09 02:07 204 1 gusting 5 24.4
2020-Jul-09 02:02 228 1 gusting 5 24.4
2020-Jul-09 01:57 244 0 gusting 4 24.4
2020-Jul-09 01:52 140 0 gusting 3 25.0
2020-Jul-09 01:47 214 0 gusting 3 25.0
2020-Jul-09 01:42 278 1 gusting 5 25.0
2020-Jul-09 01:37 214 1 gusting 5 25.0
2020-Jul-09 01:32 246 0 gusting 3 25.0
2020-Jul-09 01:27 230 1 gusting 6 25.0
2020-Jul-09 01:22 269 1 gusting 6 25.0
2020-Jul-09 01:17 150 0 gusting 5 25.0
2020-Jul-09 01:12 236 0 gusting 4 25.0
2020-Jul-09 01:07 227 0 gusting 6 25.0
2020-Jul-09 01:02 239 1 gusting 6 25.0
2020-Jul-09 00:57 262 1 gusting 6 25.0
2020-Jul-09 00:52 219 1 gusting 6 25.0
2020-Jul-09 00:47 240 1 gusting 6 25.6
2020-Jul-09 00:42 251 1 gusting 6 25.6
2020-Jul-09 00:37 250 1 gusting 5 25.6
2020-Jul-09 00:32 222 1 gusting 5 25.6
2020-Jul-09 00:27 271 1 gusting 4 25.6
2020-Jul-09 00:22 110 1 gusting 4 25.6
2020-Jul-09 00:17 276 0 gusting 4 25.6
2020-Jul-09 00:12 245 1 gusting 3 25.6
2020-Jul-09 00:07 225 0 gusting 3 25.6
2020-Jul-09 00:01 163 1 gusting 6 25.6
2020-Jul-08 23:56 251 1 gusting 6 25.6
2020-Jul-08 23:51 249 1 gusting 6 25.6
2020-Jul-08 23:46 259 1 gusting 6 26.1
2020-Jul-08 23:41 215 1 gusting 5 26.1
2020-Jul-08 23:36 209 0 gusting 5 26.1
2020-Jul-08 23:31 203 0 gusting 4 26.7
2020-Jul-08 23:26 219 1 gusting 4 26.7
2020-Jul-08 23:21 264 1 gusting 5 26.7
2020-Jul-08 23:16 180 2 gusting 5 26.7
2020-Jul-08 23:11 210 2 gusting 6 26.7
2020-Jul-08 23:06 259 1 gusting 6 26.7
2020-Jul-08 23:01 235 1 gusting 6 26.7